Weather in Hamar

Norway     60°48′06″N   11°04′35″E
temp.,
°C
wind,
m/s
gust,
m/s
humid.,
%
clouds,
%
prec.,
mm/h
press.,
hPa
HPBL,
m
17 april, sat
sat1723:00+1nw128564 0.0 103439
02:00+2wnw118496 0.0 103426
05:00+1wnw118938 0.0 103411
08:00+3nw11805 0.0 1034112
11:00+8n12585 0.0 1033692
14:00+11ene22415 0.0 10321330
17:00+11ene23454 0.0 10311324
20:00+7ene13724 0.0 103263
18 april, sun
sun1823:00+3nw11860 0.0 103311
02:00+2wnw00894 0.0 103310
05:000w00919 0.0 103310
08:00+3nnw00795 0.0 1033130
11:00+8e01585 0.0 1031511
14:00+12sse11425 0.0 1030992
17:00+13ssw12435 0.0 10291155
20:00+9w11615 0.0 102910
19 april, mon
mon1923:00+6w00735 0.0 103010
02:00+5wnw11835 0.0 103010
05:00+3wsw00895 0.0 103010
08:00+5e00805 0.0 1030140
11:00+11sse12585 0.0 1028740
14:00+13s234511 0.0 10271433
17:00+14s234211 0.0 10251609
20:00+11s11530 0.0 102410
20 april, tue
tue2023:00+7s21610 0.0 102418
02:00+5sse11690 0.0 102317
05:00+4sse11770 0.0 102217
08:00+6se12700 0.0 1020166
11:00+11s35495 0.0 10181127
14:00+13ssw46425 0.0 10151714
17:00+14s564420 0.0 10121842
20:00+10s41057100 0.0 1010608
21 april, wed
wed2123:00+7sse277488 0.0 1007288
02:00+6se1385100 0.5 1005195
05:00+4nw61290100 3.1 10041058
08:00+4n41362100 4.6 10041715
11:00+4n41059100 0.2 10051743
14:00+6nnw61135100 0.2 10042295
17:00+7n5103394 0.0 10032749
20:00+4nnw494278 0.0 1004912